Fort Collins, CO

10:22 AM MDT on April 30, 2017 (GMT -0600)
Fort Collins-Loveland Municipal

Weather History for KFNL - December, 2012

Change the Weather History Date:

Friday, December 28, 2012

  Actual Average Record
Temperature  
Mean Temperature 16 °F -  
Max Temperature 28 °F - 62 °F (1999)
Min Temperature 5 °F - -5 °F (2007)
Degree Days  
Heating Degree Days 48    
Month to date heating degree days  
Cooling Degree Days 0    
Month to date cooling degree days  
Moisture  
Dew Point 8 °F    
Average Humidity 75    
Maximum Humidity 100    
Minimum Humidity 39    
Precipitation  
Precipitation 0.00 in - 0.03 in (2006)
Sea Level Pressure  
Sea Level Pressure 29.97 in    
Wind  
Wind Speed 2 mph (SSW)    
Max Wind Speed 15 mph    
Max Gust Speed 16 mph    
Visibility 8 miles    
Events      
T = Trace of Precipitation, MM = Missing Value Source: NWS Daily Summary

Daily Weather History Graph

Daily Weather History Graph

Search for Another Location

Airport or City:

Trip Planner

Search our weather history database for the weather conditions in past years. The results will help you decide how hot, cold, wet, or windy it might be!

Date:

Astronomy

Dec. 28, 2012 Rise Set
Actual Time 7:22 AM MST 4:41 PM MST
Civil Twilight 6:51 AM MST 5:12 PM MST
Nautical Twilight 6:17 AM MST 5:46 PM MST
Astronomical Twilight 5:44 AM MST 6:19 PM MST
Moon 5:20 PM MST (12/28) 7:18 AM MST (12/28)
Length of Visible Light 10h 20m
Length of Day
9h 18m
Full, 100% of the Moon is Illuminated
Dec 28
Full
Jan 4
Last Quarter
Jan 11
New
Jan 18
First Quarter
Jan 26
Full

Hourly Weather History & Observations

Time (MST) Temp. Windchill Dew Point Humidity Pressure Visibility Wind Dir Wind Speed Gust Speed Precip Events Conditions
12:15 AM 8.6 °F - 6.8 °F 92% 29.87 in 0.2 mi Calm Calm - N/A   Overcast
12:35 AM 8.6 °F - 6.8 °F 92% 29.87 in 0.2 mi Calm Calm - N/A   Overcast
12:55 AM 6.8 °F -0.1 °F 3.2 °F 85% 29.88 in 0.5 mi NE 3.5 mph - N/A   Mostly Cloudy
1:15 AM 5.0 °F - 3.2 °F 92% 29.88 in 0.2 mi Calm Calm - N/A   Overcast
1:35 AM 5.0 °F -2.1 °F 1.4 °F 85% 29.89 in 0.2 mi North 3.5 mph - N/A   Overcast
2:15 AM 6.8 °F - 5.0 °F 92% 29.90 in 3.0 mi Calm Calm - N/A   Clear
2:35 AM 6.8 °F - 3.2 °F 85% 29.90 in 3.0 mi Calm Calm - N/A   Scattered Clouds
2:55 AM 8.6 °F - 5.0 °F 85% 29.90 in 9.0 mi Calm Calm - N/A   Partly Cloudy
3:15 AM 8.6 °F - 3.2 °F 79% 29.90 in 10.0 mi Calm Calm - N/A   Clear
3:35 AM 8.6 °F - 6.8 °F 92% 29.90 in 10.0 mi Calm Calm - N/A   Clear
3:55 AM 8.6 °F - 6.8 °F 92% 29.89 in 10.0 mi Calm Calm - N/A   Scattered Clouds
4:15 AM 6.8 °F - 5.0 °F 92% 29.89 in 8.0 mi Calm Calm - N/A   Scattered Clouds
4:35 AM 6.8 °F - 3.2 °F 85% 29.89 in 5.0 mi Calm Calm - N/A   Mostly Cloudy
4:55 AM 8.6 °F - 6.8 °F 92% 29.89 in 7.0 mi Calm Calm - N/A   Overcast
5:15 AM 8.6 °F - 6.8 °F 92% 29.90 in 6.0 mi Calm Calm - N/A   Overcast
5:35 AM 8.6 °F - 6.8 °F 92% 29.90 in 6.0 mi Calm Calm - N/A   Overcast
5:55 AM 10.4 °F - 8.6 °F 92% 29.92 in 7.0 mi Calm Calm - N/A   Overcast
6:15 AM 10.4 °F - 8.6 °F 92% 29.92 in 7.0 mi Calm Calm - N/A   Overcast
6:35 AM 8.6 °F - 8.6 °F 100% 29.93 in 6.0 mi Calm Calm - N/A   Overcast
7:15 AM 8.6 °F - 6.8 °F 92% 29.93 in 6.0 mi Calm Calm - N/A   Partly Cloudy
7:35 AM 6.8 °F -0.1 °F 1.4 °F 79% 29.93 in 4.0 mi SW 3.5 mph - N/A   Clear
7:55 AM 6.8 °F - 3.2 °F 85% 29.93 in 5.0 mi Calm Calm - N/A   Clear
8:15 AM 8.6 °F - 6.8 °F 92% 29.94 in 5.0 mi Calm Calm - N/A   Mostly Cloudy
8:35 AM 10.4 °F - 8.6 °F 92% 29.95 in 5.0 mi Calm Calm - N/A   Overcast
8:55 AM 12.2 °F - 10.4 °F 92% 29.96 in 7.0 mi Calm Calm - N/A   Overcast
9:15 AM 12.2 °F - 10.4 °F 92% 29.97 in 7.0 mi Calm Calm - N/A   Overcast
9:35 AM 12.2 °F 6.1 °F 10.4 °F 92% 29.97 in 5.0 mi North 3.5 mph - N/A   Mostly Cloudy
9:55 AM 12.2 °F 4.3 °F 10.4 °F 92% 29.98 in 7.0 mi North 4.6 mph - N/A   Partly Cloudy
10:15 AM 12.2 °F 6.1 °F 10.4 °F 92% 29.98 in 7.0 mi North 3.5 mph - N/A   Clear
10:35 AM 15.8 °F - 15.8 °F 100% 29.98 in 7.0 mi Calm Calm - N/A   Clear
11:15 AM 17.6 °F - 14.0 °F 86% 29.96 in 9.0 mi Calm Calm - N/A   Clear
11:35 AM 19.4 °F 14.3 °F 17.6 °F 93% 29.96 in 9.0 mi SSW 3.5 mph - N/A   Clear
11:55 AM 21.2 °F 12.6 °F 19.4 °F 93% 29.95 in 10.0 mi SSE 6.9 mph - N/A   Clear
12:15 PM 21.2 °F 12.6 °F 17.6 °F 86% 29.94 in 10.0 mi South 6.9 mph - N/A   Clear
12:35 PM 24.8 °F 19.1 °F 17.6 °F 74% 29.94 in 10.0 mi South 4.6 mph - N/A   Scattered Clouds
12:55 PM 26.6 °F 21.2 °F 17.6 °F 69% 29.94 in 10.0 mi South 4.6 mph - N/A   Partly Cloudy
1:15 PM 26.6 °F 18.2 °F 14.0 °F 59% 29.93 in 10.0 mi South 8.1 mph - N/A   Clear
1:35 PM 26.6 °F 18.2 °F 12.2 °F 55% 29.93 in 10.0 mi South 8.1 mph - N/A   Clear
1:55 PM 26.6 °F 19.1 °F 14.0 °F 59% 29.94 in 10.0 mi SSE 6.9 mph - N/A   Scattered Clouds
2:15 PM 28.4 °F 22.2 °F 15.8 °F 59% 29.94 in 10.0 mi SSE 5.8 mph - N/A   Scattered Clouds
2:55 PM 28.4 °F 23.3 °F 15.8 °F 59% 29.96 in 10.0 mi SSE 4.6 mph - N/A   Mostly Cloudy
3:35 PM 26.6 °F 21.2 °F 12.2 °F 55% 29.98 in 10.0 mi SSW 4.6 mph - N/A   Scattered Clouds
3:55 PM 26.6 °F - 12.2 °F 55% 29.99 in 10.0 mi Calm Calm - N/A   Scattered Clouds
4:15 PM 26.6 °F 21.2 °F 10.4 °F 51% 30.00 in 10.0 mi WNW 4.6 mph - N/A   Partly Cloudy
4:35 PM 23.0 °F 14.7 °F 8.6 °F 54% 30.00 in 10.0 mi West 6.9 mph - N/A   Scattered Clouds
5:15 PM 24.8 °F 12.4 °F 6.8 °F 46% 30.02 in 10.0 mi NNW 15.0 mph - N/A   Partly Cloudy
5:35 PM 21.2 °F 11.7 °F 5.0 °F 50% 30.02 in 10.0 mi NNW 8.1 mph - N/A   Clear
5:55 PM 21.2 °F 8.9 °F 3.2 °F 46% 30.03 in 10.0 mi North 12.7 mph 16.1 mph N/A   Partly Cloudy
6:35 PM 21.2 °F 13.6 °F 3.2 °F 46% 30.04 in 10.0 mi West 5.8 mph - N/A   Clear
6:55 PM 21.2 °F 14.9 °F 1.4 °F 42% 30.04 in 10.0 mi WNW 4.6 mph - N/A   Clear
7:15 PM 23.0 °F 18.4 °F 3.2 °F 43% 30.05 in 10.0 mi NE 3.5 mph - N/A   Clear
7:35 PM 23.0 °F - 1.4 °F 39% 30.05 in 10.0 mi Calm Calm - N/A   Clear
7:55 PM 21.2 °F - 3.2 °F 46% 30.05 in 10.0 mi Calm Calm - N/A   Clear
8:35 PM 21.2 °F 16.4 °F 3.2 °F 46% 30.05 in 10.0 mi ESE 3.5 mph - N/A   Clear
8:55 PM 14.0 °F 6.5 °F -5.8 °F 41% 30.06 in 10.0 mi SSE 4.6 mph - N/A   Clear
9:15 PM 15.8 °F 10.2 °F 6.8 °F 68% 30.06 in 10.0 mi South 3.5 mph - N/A   Clear
9:35 PM 15.8 °F 10.2 °F 8.6 °F 73% 30.07 in 10.0 mi SSW 3.5 mph - N/A   Clear
9:55 PM 15.8 °F 8.6 °F 6.8 °F 68% 30.07 in 10.0 mi South 4.6 mph - N/A   Clear
10:15 PM 17.6 °F 12.3 °F 8.6 °F 68% 30.07 in 10.0 mi South 3.5 mph - N/A   Clear
10:35 PM 10.4 °F 0.8 °F -0.4 °F 62% 30.07 in 10.0 mi South 5.8 mph - N/A   Clear
10:55 PM 12.2 °F 1.7 °F 6.8 °F 79% 30.08 in 10.0 mi South 6.9 mph - N/A   Clear
11:15 PM 12.2 °F 6.1 °F 3.2 °F 67% 30.08 in 10.0 mi SSE 3.5 mph - N/A   Clear
11:35 PM 12.2 °F 6.1 °F 3.2 °F 67% 30.08 in 10.0 mi South 3.5 mph - N/A   Clear
11:55 PM 10.4 °F - 1.4 °F 67% 30.08 in 10.0 mi Calm Calm - N/A   Clear